Home > Weather > Leibnitz > Past weeks

Flag for Austria Weather for the Past 2 Weeks in Leibnitz, Styria, Austria

Now
64 °F

Scattered clouds.


Feels Like: 64 °F
Forecast: 45 / 68 °F
Wind: 5 mph from Southeast

Location: Graz-Thalerhof-Flughafen

Current Time: May 6, 2016 at 9:10:22 PM

Latest Report: May 6, 2016 at 8:00 PM


Visibility: 28 mi

Pressure: 30.00 "Hg

Humidity: 54%

Dew Point: 46 °F

Location of LeibnitzLocation

Historic Weather in Leibnitz — Graph

°F

Leibnitz Temperature Yesterday

Maximum temperature yesterday: 68 °F (at 5:00 PM)
Minimum temperature yesterday: 49 °F (at 7:00 AM)
Average temperature yesterday: 56 °F

High & Low Weather Summary for the Past Weeks

 TemperatureHumidityPressure
High71 °F (Apr 22, 4:00 PM)100% (Apr 28, 4:00 AM)30.24 "Hg (Apr 28, 4:00 AM)
Low26 °F (Apr 26, 6:00 AM)26% (Apr 25, 4:00 PM)29.55 "Hg (Apr 23, 7:00 PM)
Average51 °F64%29.95 "Hg
* Reported Apr 21 7:00 PM — May 6 7:00 PM, Leibnitz, Weather by CustomWeather, © 2016

Note: Actual official high and low records may vary slightly from our data, if they occured in-between our weather recording intervals... More about our weather records

Advertising

Leibnitz Weather History for the Previous 24 Hours

Scroll right to see more
 ConditionsComfort  
Time TempWeatherWind HumidityBarometerVisibility
7:00 PM
Fri, May 6
67 °FScattered clouds.6 mph50%29.99 "Hg25 mi
6:00 PM69 °FScattered clouds.3 mph42%29.98 "Hg22 mi
5:00 PM69 °FScattered clouds.N/A38%30.00 "Hg22 mi
4:00 PM69 °FScattered clouds.5 mph49%30.02 "Hg25 mi
3:00 PM68 °FScattered clouds.N/A44%30.04 "Hg17 mi
2:00 PM68 °FScattered clouds.3 mph46%30.06 "Hg10 mi
1:00 PM67 °FPassing clouds.N/A45%30.08 "Hg14 mi
12:00 PM65 °FPassing clouds.N/A49%30.10 "Hg19 mi
11:00 AM63 °FPassing clouds.N/A53%30.11 "Hg16 mi
10:00 AM59 °FScattered clouds.N/A65%30.13 "Hg22 mi
9:00 AM55 °FPartly sunny.N/A74%30.14 "Hg17 mi
8:00 AM50 °FPartly sunny.N/A85%30.16 "Hg17 mi
7:00 AM47 °FPartly sunny.N/A87%30.17 "Hg12 mi
6:00 AM44 °FOvercast.N/A95%30.17 "Hg7 mi
5:00 AM44 °FPassing clouds.N/A96%30.17 "Hg9 mi
4:00 AM45 °FPassing clouds.N/A94%30.18 "Hg10 mi
3:00 AM47 °FPassing clouds.N/A93%30.19 "Hg9 mi
2:00 AM48 °FOvercast.N/A87%30.19 "Hg14 mi
1:00 AM50 °FOvercast.N/A86%30.20 "Hg15 mi
12:00 AM49 °FOvercast.N/A85%30.21 "Hg17 mi
11:00 PM
Thu, May 5
51 °FPassing clouds.N/A82%30.21 "Hg25 mi
10:00 PM54 °FPassing clouds.N/A70%30.20 "Hg28 mi
9:00 PM57 °FPassing clouds.N/A64%30.18 "Hg28 mi
Weather by CustomWeather, © 2016

See weather overviewHow to use our weather pages